Regional Weather Roundup
Issued by NWS Charleston, SC

Current Version | Previous Version | Graphics & Text | Print | Product List | Glossary On
Versions: 1 2 3 4 5 6 7 8 9 10 11 12 13 14 15 16 17 18 19 20 21 22 23 24 25 26 27 28 29 30 31 32 33 34 35 36 37 38 39 40 41 42 43 44 45 46 47 48 49 50
453
ASUS42 KCHS 242013
RWRCHS

REGIONAL WEATHER ROUNDUP
NATIONAL WEATHER SERVICE CHARLESTON SC
400 PM EDT SUN JUL 24 2016

NOTE: "FAIR" INDICATES FEW OR NO CLOUDS BELOW 12,000 FEET WITH NO
SIGNIFICANT WEATHER AND/OR OBSTRUCTIONS TO VISIBILITY.

NOT ALL STATIONS ARE QUALITY CONTROLLED. USE DATA WITH CAUTION...
ESPECIALLY DEWPOINT OBSERVATIONS.

SCZ027-030-031-034>040-042>050-242100-
...SOUTHEAST SOUTH CAROLINA...

CITY           SKY/WX    TMP DP  RH WIND       PRES   REMARKS
N CHARLESTON   CLOUDY    92  75  57 SW9       30.02S THUNDER HX 103
WATERFRONT PRK   N/A     88  79  74 S7        30.01S HX 103
MOUNT PLEASANT FAIR      88  79  74 S7        30.02F HX 102
JOHNS ISLAND   FAIR      91  79  66 S12       30.02F HX 107
PINOPOLIS        N/A     86  75  70 VRB2      29.95S HX  95
MONCKS CORNER  FAIR      82  72  69 S6        30.04R THUNDER
SUMMERVILLE    NOT AVBL
BEAUFORT MCAS  PTSUNNY   93  76  57 S5        30.01F HX 105
BEAUFORT ARPT  NOT AVBL
HILTON HEAD IS MOSUNNY   97  77  52 SE9       30.03F HX 112
WALTERBORO     CLOUDY    95  72  46 S6        30.01F HX 103
ALLENDALE      FAIR      95  70  43 VRB5      29.99F HX 101

...SOUTHERN MIDLANDS AND PEE DEE...

CITY           SKY/WX    TMP DP  RH WIND       PRES   REMARKS
GEORGETOWN     FAIR      88  77  70 SW12G17   30.04S HX 100
KINGSTREE      FAIR      95  66  38 S5        30.00S HX  98
ORANGEBURG     MOSUNNY   96  71  44 SW7       30.00F HX 103
BARNWELL       NOT AVBL
AIKEN          FAIR      95  70  43 S5        30.03F HX 101
MANNING        FAIR      93  70  46 SW3       30.00S HX  99
COLUMBIA       CLOUDY    92  73  53 CALM      29.99S HX 100
SUMTER         SUNNY     96  68  40 W5        29.97F HAZE    HX 100
FLORENCE       SUNNY     95  71  45 S3        30.00F HX 102
MYRTLE BEACH   MOSUNNY   90  73  58 S14       30.04F HX  98
N MYRTLE BEACH SUNNY     88  78  72 SW18      30.02F HX 101

$$

GAZ063-065-086>088-099>101-113>116-118-119-134>141-150-242100-
...SOUTHEAST GEORGIA...

CITY           SKY/WX    TMP DP  RH WIND       PRES   REMARKS
SAVANNAH ARPT  TSTM      77  71  82 SW12      30.04R
HUNTER AAF     MOSUNNY   93  80  67 N14       30.01R HX 112
FORT STEWART   MOSUNNY   96  71  43 E8        29.97F HX 103
STATESBORO     SUNNY     98  71  42 CALM      30.00F HX 105
SYLVANIA       NOT AVBL
CLAXTON        FAIR      96  71  45 CALM      29.99F HX 103

...CSRA...CENTRAL AND FAR SOUTHEAST GEORGIA...

CITY           SKY/WX    TMP DP  RH WIND       PRES   REMARKS
THOMSON        MOSUNNY  100  69  37 W3        30.04F HX 106
AUGUSTA-BUSH   MOSUNNY   99  67  35 VRB6      29.98F HX 103
AUGUSTA-DANIEL SUNNY     97  68  38 S7        30.01F HX 102
SWAINSBORO     CLOUDY    90  72  55 NE5       30.01S HX  96
VIDALIA        MOSUNNY   97  64  34 CALM      30.00F HX  99
EASTMAN        MOCLDY    95  50  21 CALM      30.03S HX  92
HAZLEHURST     FAIR      98  68  37 CALM      29.99F HX 102
ALMA           SUNNY     96  68  39 W5        29.99F HX 101
WAYCROSS       MOSUNNY  100  72  40 SW5       29.99F HX 109
JESUP          LGT RAIN  86  77  74 SE14G23   30.02R HX  97
BAXLEY         FAIR      97  72  44 CALM      29.99F HX 105
BRUNSWICK      SUNNY     95  77  55 SE12G17   30.02F HX 109
SAINT SIMONS   SUNNY     91  75  59 SE13      30.02F HX 101

$$

SCZ027-028-034-036>038-045-046-048>050-GAZ119-141-242100-
...LAKE AND SUPPLEMENTAL COASTAL OBSERVATIONS...

STATION/POSITION TIME  TEMP    WIND        PRES    WAVE   SWELL
                       AIR SEA DIR/SP/G            HT/PER HT/PER/DIR
                 (UTC) (F)     (DEG/KT/KT) (MB)    (FT/S) (FT/S/D)
WINYAH BAY       1845   86     200/ 12     1016.0
LAKE MURRAY      1900   92     170/  7/  7 1015.2F
ACE BASIN NERRS  NOT AVBL
FORT PULASKI     1900   89 87  150/  7/ 10 1017.3F
SAPELO ISLAND    1900   92     160/ 10     1017.0S

$$

ANZ835-935-AMZ111-154-330-350-352-354-370-450-454-472-242100-
...C-MAN AND BUOY OBSERVATIONS...

STATION/POSITION TIME  TEMP    WIND        PRES    WAVE   SWELL
                       AIR SEA DIR/SP/G            HT/PER HT/PER/DIR
                 (UTC) (F)     (DEG/KT/KT) (MB)    (FT/S) (FT/S/D)
BUOY 41004       1950   84 86  180/  4/  6 1016.9F   2/ 9   2/120/ 9
BUOY 41008       1950   85 87  150/ 10/ 10 1017.1F   2/ 9   2/100/ 9
FOLLY BEACH CMAN 1900   86     190/ 12/ 14 1017.2F
CAPERS NEARSHORE 1908   85 84  200/ 12/ 16 1017.4R
FRIPP NEARSHORE  1908   86 88  180/ 10/ 12 1016.5F


STATION/POSITION TIME  TEMP    WIND        PRES    WAVE   SWELL
                       AIR SEA DIR/SP/G            HT/PER HT/PER/DIR
                 (UTC) (F)     (DEG/KT/KT) (MB)    (FT/S) (FT/S/D)
5E ST. MARYS GA  1901      88                N/A     2/ 9
FRYING PAN BUOY  1900   85 87  220/  6/  8 1017.1F
BUOY 41025       1950   85 86  230/ 14/ 16 1016.7F   2/ 8   2/120/ 8
CAPE LOOKOUT NC  1900   87     220/ 10/ 13 1016.8F
BUOY 41002       1950   84 87  130/  4/  4 1018.3F   2/ 9   2/ 80/ 9
BUOY 41010       1920   85 89   90/  2/  4 1018.2F
ST AUGUSTINE FL  1900   84 87  130/ 12/ 13 1018.0F


$$




USA.gov is the U.S. government's official web portal to all federal, state and local government web resources and services.